| time (UTC) | temp F | wind direction | speed MPH | gust MPH | rain 1hr in | rain 24hr in | rain mn in | humidity % | barometer mb |
| 20260508080511 | 45 | 360 | 3.0 | 0.0 | 0.00 | 0.00 | 0.00 | 71 | 1008.0 |
| 20260508080010 | 43 | 360 | 1.0 | 0.0 | 0.00 | 0.00 | 0.00 | 66 | 1008.1 |
| 20260508075509 | 42 | 360 | 0.0 | 0.0 | 0.00 | 0.00 | 0.00 | 65 | 1008.1 |
| 20260508075007 | 41 | 360 | 0.0 | 0.0 | 0.00 | 0.00 | 0.00 | 65 | 1008.0 |
| 20260508074506 | 40 | 360 | 0.0 | 0.0 | 0.00 | 0.00 | 0.00 | 65 | 1008.1 |
| 20260508074007 | 39 | 360 | 1.0 | 0.0 | 0.00 | 0.00 | 0.00 | 66 | 1008.2 |
| 20260508073502 | 38 | 360 | 0.0 | 0.0 | 0.00 | 0.00 | 0.00 | 65 | 1008.2 |
| 20260508073003 | 36 | 360 | 0.0 | 0.0 | 0.00 | 0.00 | 0.00 | 63 | 1008.2 |
| 20260508072602 | 35 | 360 | 0.0 | 0.0 | 0.00 | 0.00 | 0.00 | 62 | 1008.2 |
| 20260508072100 | 35 | 360 | 1.0 | 0.0 | 0.00 | 0.00 | 0.00 | 61 | 1008.3 |
| 20260508071600 | 34 | 360 | 1.0 | 0.0 | 0.00 | 0.00 | 0.00 | 59 | 1008.3 |
| 20260508071059 | 34 | 360 | 0.0 | 0.0 | 0.00 | 0.00 | 0.00 | 59 | 1008.4 |
| 20260508065559 | 34 | 360 | 1.0 | 0.0 | 0.00 | 0.00 | 0.00 | 58 | 1008.6 |
| 20260508065056 | 35 | 360 | 0.0 | 0.0 | 0.00 | 0.00 | 0.00 | 58 | 1008.6 |
| 20260508064609 | 35 | 360 | 0.0 | 0.0 | 0.00 | 0.00 | 0.00 | 58 | 1008.7 |
| 20260508064055 | 35 | 360 | 0.0 | 0.0 | 0.00 | 0.00 | 0.00 | 59 | 1008.6 |
| 20260508063554 | 34 | 360 | 0.0 | 0.0 | 0.00 | 0.00 | 0.00 | 60 | 1008.8 |
| 20260508063052 | 33 | 360 | 0.0 | 0.0 | 0.00 | 0.00 | 0.00 | 59 | 1008.7 |
| 20260508062553 | 33 | 360 | 0.0 | 0.0 | 0.00 | 0.00 | 0.00 | 58 | 1008.8 |
| 20260508062052 | 34 | 360 | 0.0 | 0.0 | 0.00 | 0.00 | 0.00 | 56 | 1008.8 |
| 20260508061551 | 35 | 360 | 0.0 | 0.0 | 0.00 | 0.00 | 0.00 | 56 | 1008.8 |
| 20260508061051 | 35 | 360 | 0.0 | 0.0 | 0.00 | 0.00 | 0.00 | 56 | 1008.9 |
| 20260508060050 | 35 | 360 | 0.0 | 0.0 | 0.00 | 0.00 | 0.00 | 56 | 1009.1 |
| 20260508055552 | 35 | 360 | 0.0 | 0.0 | 0.00 | 0.00 | 0.00 | 56 | 1009.0 |
| 20260508055051 | 34 | 360 | 0.0 | 0.0 | 0.00 | 0.00 | 0.00 | 57 | 1009.1 |
| 20260508054555 | 34 | 360 | 0.0 | 0.0 | 0.00 | 0.00 | 0.00 | 57 | 1009.1 |
| 20260508054055 | 34 | 360 | 0.0 | 0.0 | 0.00 | 0.00 | 0.00 | 57 | 1009.1 |
| 20260508053550 | 34 | 360 | 0.0 | 0.0 | 0.00 | 0.00 | 0.00 | 56 | 1009.1 |
| 20260508053050 | 34 | 360 | 0.0 | 0.0 | 0.00 | 0.00 | 0.00 | 56 | 1009.2 |
| 20260508052550 | 34 | 360 | 0.0 | 0.0 | 0.00 | 0.00 | 0.00 | 55 | 1009.2 |
| 20260508052050 | 35 | 360 | 0.0 | 0.0 | 0.00 | 0.00 | 0.00 | 53 | 1009.2 |
| 20260508051550 | 36 | 360 | 0.0 | 0.0 | 0.00 | 0.00 | 0.00 | 52 | 1009.2 |
| 20260508051050 | 36 | 360 | 0.0 | 0.0 | 0.00 | 0.00 | 0.00 | 52 | 1009.2 |
| 20260508050052 | 36 | 360 | 0.0 | 0.0 | 0.00 | 0.00 | 0.00 | 52 | 1009.1 |
| 20260508045554 | 37 | 360 | 0.0 | 0.0 | 0.00 | 0.00 | 0.00 | 51 | 1009.2 |
| 20260508045054 | 37 | 360 | 0.0 | 0.0 | 0.00 | 0.00 | 0.00 | 49 | 1009.2 |
| 20260508044550 | 38 | 360 | 0.0 | 0.0 | 0.00 | 0.00 | 0.00 | 49 | 1009.2 |
| 20260508044052 | 39 | 360 | 0.0 | 0.0 | 0.00 | 0.00 | 0.00 | 50 | 1009.2 |
| 20260508043549 | 39 | 360 | 0.0 | 0.0 | 0.00 | 0.00 | 0.00 | 50 | 1009.2 |
| 20260508043050 | 39 | 360 | 0.0 | 0.0 | 0.00 | 0.00 | 0.00 | 48 | 1009.2 |
| 20260508042550 | 40 | 360 | 0.0 | 0.0 | 0.00 | 0.00 | 0.00 | 47 | 1009.2 |
| 20260508042051 | 42 | 360 | 0.0 | 0.0 | 0.00 | 0.00 | 0.00 | 45 | 1009.3 |
| 20260508041552 | 42 | 360 | 0.0 | 0.0 | 0.00 | 0.00 | 0.00 | 47 | 1009.3 |
| 20260508041050 | 42 | 360 | 0.0 | 0.0 | 0.00 | 0.00 | 0.00 | 47 | 1009.2 |
| 20260508040049 | 42 | 360 | 1.0 | 0.0 | 0.00 | 0.00 | 0.00 | 45 | 1009.4 |
| 20260508035550 | 43 | 360 | 1.0 | 0.0 | 0.00 | 0.00 | 0.00 | 44 | 1009.4 |
| 20260508035049 | 44 | 360 | 0.0 | 0.0 | 0.00 | 0.00 | 0.00 | 43 | 1009.4 |
| 20260508034554 | 45 | 360 | 0.0 | 0.0 | 0.00 | 0.00 | 0.00 | 44 | 1009.5 |
| 20260508034049 | 45 | 360 | 0.0 | 0.0 | 0.00 | 0.00 | 0.00 | 44 | 1009.6 |
| 20260508033549 | 44 | 360 | 1.0 | 0.0 | 0.00 | 0.00 | 0.00 | 44 | 1009.6 |
| 20260508033050 | 44 | 360 | 2.0 | 0.0 | 0.00 | 0.00 | 0.00 | 44 | 1009.6 |
| 20260508032548 | 43 | 360 | 2.0 | 0.0 | 0.00 | 0.00 | 0.00 | 45 | 1009.7 |
| 20260508032048 | 43 | 360 | 1.0 | 0.0 | 0.00 | 0.00 | 0.00 | 45 | 1009.7 |
| 20260508031548 | 43 | 360 | 1.0 | 0.0 | 0.00 | 0.00 | 0.00 | 45 | 1009.7 |
| 20260508031049 | 43 | 360 | 2.0 | 0.0 | 0.00 | 0.00 | 0.00 | 45 | 1009.7 |
| 20260508025548 | 44 | 360 | 1.0 | 0.0 | 0.00 | 0.00 | 0.00 | 41 | 1009.6 |
| 20260508025048 | 45 | 360 | 0.0 | 0.0 | 0.00 | 0.00 | 0.00 | 40 | 1009.5 |
| 20260508024555 | 47 | 360 | 0.0 | 0.0 | 0.00 | 0.00 | 0.00 | 40 | 1009.4 |
| 20260508024048 | 48 | 360 | 0.0 | 0.0 | 0.00 | 0.00 | 0.00 | 35 | 1009.3 |
| 20260508023547 | 49 | 360 | 0.0 | 0.0 | 0.00 | 0.00 | 0.00 | 35 | 1009.3 |
| 20260508023047 | 50 | 360 | 0.0 | 0.0 | 0.00 | 0.00 | 0.00 | 33 | 1009.2 |
| 20260508022547 | 51 | 360 | 0.0 | 0.0 | 0.00 | 0.00 | 0.00 | 31 | 1009.3 |
| 20260508022048 | 53 | 360 | 0.0 | 0.0 | 0.00 | 0.00 | 0.00 | 31 | 1009.2 |
| 20260508021547 | 54 | 360 | 0.0 | 0.0 | 0.00 | 0.00 | 0.00 | 30 | 1009.2 |
| 20260508021046 | 55 | 360 | 0.0 | 0.0 | 0.00 | 0.00 | 0.00 | 29 | 1009.1 |
| 20260508020049 | 57 | 360 | 0.0 | 0.0 | 0.00 | 0.00 | 0.00 | 27 | 1008.9 |
| 20260508015548 | 59 | 360 | 0.0 | 0.0 | 0.00 | 0.00 | 0.00 | 27 | 1009.0 |
| 20260508015048 | 59 | 360 | 0.0 | 0.0 | 0.00 | 0.00 | 0.00 | 27 | 1008.9 |
| 20260508014547 | 60 | 360 | 0.0 | 0.0 | 0.00 | 0.00 | 0.00 | 27 | 1009.1 |
| 20260508014048 | 61 | 360 | 0.0 | 0.0 | 0.00 | 0.00 | 0.00 | 27 | 1009.1 |
| 20260508013546 | 61 | 360 | 1.0 | 0.0 | 0.00 | 0.00 | 0.00 | 25 | 1009.1 |
| 20260508013046 | 62 | 360 | 1.0 | 0.0 | 0.00 | 0.00 | 0.00 | 25 | 1009.1 |
| 20260508012547 | 62 | 360 | 2.0 | 0.0 | 0.00 | 0.00 | 0.00 | 25 | 1009.1 |
| 20260508012049 | 62 | 360 | 3.0 | 0.0 | 0.00 | 0.00 | 0.00 | 25 | 1009.1 |
| 20260508011559 | 63 | 360 | 4.0 | 0.0 | 0.00 | 0.00 | 0.00 | 24 | 1009.1 |
| 20260508011045 | 64 | 360 | 3.0 | 0.0 | 0.00 | 0.00 | 0.00 | 24 | 1009.1 |
| 20260508010056 | 63 | 360 | 4.0 | 0.0 | 0.00 | 0.00 | 0.00 | 24 | 1009.2 |
| 20260508005544 | 63 | 360 | 5.0 | 0.0 | 0.00 | 0.00 | 0.00 | 24 | 1009.2 |
| 20260508005044 | 64 | 360 | 6.0 | 0.0 | 0.00 | 0.00 | 0.00 | 23 | 1009.3 |
| 20260508004555 | 64 | 360 | 7.0 | 0.0 | 0.00 | 0.00 | 0.00 | 23 | 1009.3 |
| 20260508004044 | 65 | 360 | 7.0 | 0.0 | 0.00 | 0.00 | 0.00 | 22 | 1009.3 |
| 20260508003544 | 65 | 360 | 7.0 | 0.0 | 0.00 | 0.00 | 0.00 | 23 | 1009.3 |
| 20260508003045 | 65 | 360 | 6.0 | 0.0 | 0.00 | 0.00 | 0.00 | 23 | 1009.3 |
| 20260508002544 | 65 | 360 | 5.0 | 0.0 | 0.00 | 0.00 | 0.00 | 22 | 1009.4 |
| 20260508002043 | 65 | 360 | 7.0 | 0.0 | 0.00 | 0.00 | 0.00 | 22 | 1009.4 |
| 20260508001545 | 65 | 360 | 7.0 | 0.0 | 0.00 | 0.00 | 0.00 | 22 | 1009.3 |
| 20260508001042 | 65 | 360 | 7.0 | 0.0 | 0.00 | 0.00 | 0.00 | 23 | 1009.3 |
| 20260508000042 | 65 | 360 | 8.0 | 0.0 | 0.00 | 0.00 | 0.00 | 22 | 1009.6 |
| 20260507235542 | 65 | 360 | 8.0 | 0.0 | 0.00 | 0.00 | 0.00 | 22 | 1009.6 |
| 20260507235042 | 65 | 360 | 9.0 | 0.0 | 0.00 | 0.00 | 0.00 | 22 | 1009.6 |
| 20260507234542 | 65 | 360 | 10.0 | 0.0 | 0.00 | 0.00 | 0.00 | 22 | 1009.6 |
| 20260507234041 | 65 | 360 | 9.0 | 0.0 | 0.00 | 0.00 | 0.00 | 22 | 1009.5 |
| 20260507233542 | 64 | 360 | 9.0 | 0.0 | 0.00 | 0.00 | 0.00 | 23 | 1009.5 |
| 20260507233042 | 65 | 360 | 7.0 | 0.0 | 0.00 | 0.00 | 0.00 | 22 | 1009.4 |
| 20260507232540 | 65 | 360 | 7.0 | 0.0 | 0.00 | 0.00 | 0.00 | 22 | 1009.4 |
| 20260507232040 | 65 | 360 | 7.0 | 0.0 | 0.00 | 0.00 | 0.00 | 21 | 1009.6 |
| 20260507231541 | 64 | 360 | 4.0 | 0.0 | 0.00 | 0.00 | 0.00 | 21 | 1009.8 |
| 20260507231038 | 64 | 360 | 3.0 | 0.0 | 0.00 | 0.00 | 0.00 | 20 | 1009.8 |
| 20260507230038 | 63 | 360 | 5.0 | 0.0 | 0.00 | 0.00 | 0.00 | 21 | 1009.8 |
| 20260507225538 | 63 | 360 | 8.0 | 0.0 | 0.00 | 0.00 | 0.00 | 21 | 1009.8 |
| 20260507225038 | 64 | 360 | 8.0 | 0.0 | 0.00 | 0.00 | 0.00 | 21 | 1009.8 |
| 20260507224544 | 63 | 360 | 7.0 | 0.0 | 0.00 | 0.00 | 0.00 | 21 | 1009.8 |
| 20260507224037 | 63 | 360 | 7.0 | 0.0 | 0.00 | 0.00 | 0.00 | 21 | 1009.9 |
| 20260507223541 | 63 | 360 | 4.0 | 0.0 | 0.00 | 0.00 | 0.00 | 21 | 1009.9 |
| 20260507223037 | 63 | 360 | 3.0 | 0.0 | 0.00 | 0.00 | 0.00 | 21 | 1009.9 |
| 20260507222539 | 63 | 360 | 6.0 | 0.0 | 0.00 | 0.00 | 0.00 | 21 | 1009.9 |
| 20260507222035 | 63 | 360 | 8.0 | 0.0 | 0.00 | 0.00 | 0.00 | 21 | 1010.0 |
| 20260507221538 | 63 | 360 | 7.0 | 0.0 | 0.00 | 0.00 | 0.00 | 22 | 1010.1 |
| 20260507221036 | 63 | 360 | 6.0 | 0.0 | 0.00 | 0.00 | 0.00 | 21 | 1010.2 |
| 20260507220036 | 64 | 360 | 7.0 | 0.0 | 0.00 | 0.00 | 0.00 | 21 | 1010.3 |
| 20260507215536 | 63 | 360 | 7.0 | 0.0 | 0.00 | 0.00 | 0.00 | 21 | 1010.4 |
| 20260507215036 | 63 | 360 | 7.0 | 0.0 | 0.00 | 0.00 | 0.00 | 21 | 1010.4 |
| 20260507214535 | 63 | 360 | 8.0 | 0.0 | 0.00 | 0.00 | 0.00 | 21 | 1010.4 |
| 20260507214034 | 64 | 360 | 10.0 | 0.0 | 0.00 | 0.00 | 0.00 | 20 | 1010.4 |
| 20260507213534 | 64 | 360 | 9.0 | 0.0 | 0.00 | 0.00 | 0.00 | 21 | 1010.5 |
| 20260507213033 | 63 | 360 | 8.0 | 0.0 | 0.00 | 0.00 | 0.00 | 20 | 1010.6 |
| 20260507212533 | 63 | 360 | 9.0 | 0.0 | 0.00 | 0.00 | 0.00 | 20 | 1010.6 |
| 20260507212032 | 63 | 360 | 7.0 | 0.0 | 0.00 | 0.00 | 0.00 | 20 | 1010.7 |
| 20260507211534 | 63 | 360 | 7.0 | 0.0 | 0.00 | 0.00 | 0.00 | 19 | 1010.8 |
| 20260507211032 | 64 | 360 | 8.0 | 0.0 | 0.00 | 0.00 | 0.00 | 19 | 1010.9 |
| 20260507210511 | 63 | 360 | 7.0 | 0.0 | 0.00 | 0.00 | 0.00 | 19 | 1010.9 |
| 20260507210011 | 63 | 360 | 6.0 | 0.0 | 0.00 | 0.00 | 0.00 | 19 | 1010.8 |
| 20260507205511 | 63 | 360 | 9.0 | 0.0 | 0.00 | 0.00 | 0.00 | 19 | 1011.0 |
| 20260507205010 | 63 | 360 | 9.0 | 0.0 | 0.00 | 0.00 | 0.00 | 19 | 1010.8 |
| 20260507204510 | 63 | 360 | 6.0 | 0.0 | 0.00 | 0.00 | 0.00 | 20 | 1010.9 |
| 20260507204010 | 63 | 360 | 6.0 | 0.0 | 0.00 | 0.00 | 0.00 | 20 | 1010.9 |
| 20260507203510 | 63 | 360 | 8.0 | 0.0 | 0.00 | 0.00 | 0.00 | 20 | 1011.0 |
| 20260507203059 | 63 | 360 | 7.0 | 0.0 | 0.00 | 0.00 | 0.00 | 20 | 1011.0 |
| 20260507202602 | 62 | 360 | 5.0 | 0.0 | 0.00 | 0.00 | 0.00 | 21 | 1011.0 |
| 20260507202059 | 63 | 360 | 5.0 | 0.0 | 0.00 | 0.00 | 0.00 | 20 | 1011.0 |
| 20260507201559 | 63 | 360 | 7.0 | 0.0 | 0.00 | 0.00 | 0.00 | 20 | 1011.0 |
| 20260507201058 | 64 | 360 | 8.0 | 0.0 | 0.00 | 0.00 | 0.00 | 20 | 1011.0 |
| 20260507200558 | 63 | 360 | 8.0 | 0.0 | 0.00 | 0.00 | 0.00 | 20 | 1011.0 |
| 20260507200057 | 63 | 360 | 7.0 | 0.0 | 0.00 | 0.00 | 0.00 | 20 | 1011.0 |
| 20260507195556 | 63 | 360 | 6.0 | 0.0 | 0.00 | 0.00 | 0.00 | 20 | 1011.0 |
| 20260507195057 | 63 | 360 | 7.0 | 0.0 | 0.00 | 0.00 | 0.00 | 20 | 1011.0 |
| 20260507194556 | 63 | 360 | 6.0 | 0.0 | 0.00 | 0.00 | 0.00 | 20 | 1011.0 |
| 20260507194054 | 62 | 360 | 4.0 | 0.0 | 0.00 | 0.00 | 0.00 | 20 | 1011.0 |
| 20260507193106 | 62 | 360 | 3.0 | 0.0 | 0.00 | 0.00 | 0.00 | 22 | 1011.1 |
| 20260507192552 | 62 | 360 | 5.0 | 0.0 | 0.00 | 0.00 | 0.00 | 21 | 1011.2 |
| 20260507192051 | 62 | 360 | 4.0 | 0.0 | 0.00 | 0.00 | 0.00 | 21 | 1011.2 |
| 20260507191551 | 62 | 360 | 5.0 | 0.0 | 0.00 | 0.00 | 0.00 | 21 | 1011.4 |
| 20260507191049 | 61 | 360 | 5.0 | 0.0 | 0.00 | 0.00 | 0.00 | 22 | 1011.3 |
| 20260507190548 | 61 | 360 | 4.0 | 0.0 | 0.00 | 0.00 | 0.00 | 23 | 1011.5 |
| 20260507190056 | 60 | 360 | 3.0 | 0.0 | 0.00 | 0.00 | 0.00 | 22 | 1011.5 |
| 20260507185547 | 61 | 360 | 4.0 | 0.0 | 0.00 | 0.00 | 0.00 | 22 | 1011.6 |
| 20260507185046 | 60 | 360 | 5.0 | 0.0 | 0.00 | 0.00 | 0.00 | 22 | 1011.7 |
| 20260507184545 | 60 | 360 | 6.0 | 0.0 | 0.00 | 0.00 | 0.00 | 22 | 1011.8 |
| 20260507184048 | 60 | 360 | 6.0 | 0.0 | 0.00 | 0.00 | 0.00 | 22 | 1011.9 |
| 20260507183049 | 59 | 360 | 5.0 | 0.0 | 0.00 | 0.00 | 0.00 | 23 | 1012.0 |
| 20260507182551 | 60 | 360 | 6.0 | 0.0 | 0.00 | 0.00 | 0.00 | 22 | 1012.1 |
| 20260507182047 | 60 | 360 | 6.0 | 0.0 | 0.00 | 0.00 | 0.00 | 23 | 1012.1 |
| 20260507181545 | 60 | 360 | 6.0 | 0.0 | 0.00 | 0.00 | 0.00 | 22 | 1012.3 |
| 20260507181044 | 60 | 360 | 5.0 | 0.0 | 0.00 | 0.00 | 0.00 | 22 | 1012.4 |
| 20260507180544 | 59 | 360 | 4.0 | 0.0 | 0.00 | 0.00 | 0.00 | 23 | 1012.4 |
| 20260507180050 | 59 | 360 | 3.0 | 0.0 | 0.00 | 0.00 | 0.00 | 23 | 1012.5 |
| 20260507175542 | 59 | 360 | 3.0 | 0.0 | 0.00 | 0.00 | 0.00 | 23 | 1012.4 |
| 20260507175040 | 58 | 360 | 3.0 | 0.0 | 0.00 | 0.00 | 0.00 | 24 | 1012.6 |
| 20260507174541 | 58 | 360 | 2.0 | 0.0 | 0.00 | 0.00 | 0.00 | 23 | 1012.5 |
| 20260507174041 | 58 | 360 | 3.0 | 0.0 | 0.00 | 0.00 | 0.00 | 23 | 1012.6 |
| 20260507173036 | 57 | 360 | 4.0 | 0.0 | 0.00 | 0.00 | 0.00 | 24 | 1012.7 |
| 20260507172538 | 57 | 360 | 4.0 | 0.0 | 0.00 | 0.00 | 0.00 | 23 | 1012.7 |
| 20260507172035 | 58 | 360 | 3.0 | 0.0 | 0.00 | 0.00 | 0.00 | 23 | 1012.7 |
| 20260507171534 | 57 | 360 | 3.0 | 0.0 | 0.00 | 0.00 | 0.00 | 24 | 1012.7 |
| 20260507171034 | 57 | 360 | 2.0 | 0.0 | 0.00 | 0.00 | 0.00 | 24 | 1012.8 |
| 20260507170532 | 56 | 360 | 3.0 | 0.0 | 0.00 | 0.00 | 0.00 | 24 | 1012.7 |
| 20260507170034 | 56 | 360 | 3.0 | 0.0 | 0.00 | 0.00 | 0.00 | 24 | 1012.8 |
| 20260507165530 | 55 | 360 | 2.0 | 0.0 | 0.00 | 0.00 | 0.00 | 24 | 1012.9 |
| 20260507165034 | 55 | 360 | 2.0 | 0.0 | 0.00 | 0.00 | 0.00 | 24 | 1012.9 |
| 20260507164531 | 55 | 360 | 3.0 | 0.0 | 0.00 | 0.00 | 0.00 | 24 | 1012.9 |
| 20260507164033 | 55 | 360 | 2.0 | 0.0 | 0.00 | 0.00 | 0.00 | 24 | 1013.0 |
| 20260507163031 | 55 | 360 | 3.0 | 0.0 | 0.00 | 0.00 | 0.00 | 24 | 1013.0 |
| 20260507162529 | 55 | 360 | 4.0 | 0.0 | 0.00 | 0.00 | 0.00 | 24 | 1013.1 |
| 20260507162028 | 54 | 360 | 4.0 | 0.0 | 0.00 | 0.00 | 0.00 | 25 | 1013.1 |
| 20260507161528 | 54 | 360 | 4.0 | 0.0 | 0.00 | 0.00 | 0.00 | 24 | 1013.1 |
| 20260507161027 | 54 | 360 | 3.0 | 0.0 | 0.00 | 0.00 | 0.00 | 25 | 1013.2 |
| 20260507160528 | 53 | 360 | 3.0 | 0.0 | 0.00 | 0.00 | 0.00 | 26 | 1013.2 |
| 20260507160025 | 53 | 360 | 3.0 | 0.0 | 0.00 | 0.00 | 0.00 | 25 | 1013.2 |
| 20260507155525 | 53 | 360 | 3.0 | 0.0 | 0.00 | 0.00 | 0.00 | 27 | 1013.2 |
| 20260507155024 | 52 | 360 | 3.0 | 0.0 | 0.00 | 0.00 | 0.00 | 28 | 1013.2 |
| 20260507154523 | 52 | 360 | 3.0 | 0.0 | 0.00 | 0.00 | 0.00 | 28 | 1013.3 |
| 20260507154022 | 52 | 360 | 3.0 | 0.0 | 0.00 | 0.00 | 0.00 | 33 | 1013.2 |
| 20260507153020 | 51 | 360 | 3.0 | 0.0 | 0.00 | 0.00 | 0.00 | 34 | 1013.2 |
| 20260507152518 | 50 | 360 | 4.0 | 0.0 | 0.00 | 0.00 | 0.00 | 37 | 1013.1 |
| 20260507152018 | 50 | 360 | 3.0 | 0.0 | 0.00 | 0.00 | 0.00 | 38 | 1013.2 |
| 20260507151517 | 49 | 360 | 3.0 | 0.0 | 0.00 | 0.00 | 0.00 | 38 | 1013.2 |
| 20260507151015 | 49 | 360 | 3.0 | 0.0 | 0.00 | 0.00 | 0.00 | 38 | 1013.2 |
| 20260507150517 | 49 | 360 | 3.0 | 0.0 | 0.00 | 0.00 | 0.00 | 38 | 1013.3 |
| 20260507150013 | 48 | 360 | 2.0 | 0.0 | 0.00 | 0.00 | 0.00 | 39 | 1013.4 |
| 20260507145512 | 48 | 360 | 2.0 | 0.0 | 0.00 | 0.00 | 0.00 | 39 | 1013.4 |
| 20260507145011 | 47 | 360 | 2.0 | 0.0 | 0.00 | 0.00 | 0.00 | 39 | 1013.5 |
| 20260507144509 | 47 | 360 | 1.0 | 0.0 | 0.00 | 0.00 | 0.00 | 39 | 1013.6 |
| 20260507144008 | 46 | 360 | 1.0 | 0.0 | 0.00 | 0.00 | 0.00 | 41 | 1013.6 |
| 20260507143005 | 45 | 360 | 1.0 | 0.0 | 0.00 | 0.00 | 0.00 | 41 | 1013.6 |
| 20260507142504 | 44 | 360 | 1.0 | 0.0 | 0.00 | 0.00 | 0.00 | 42 | 1013.6 |
| 20260507142006 | 44 | 360 | 1.0 | 0.0 | 0.00 | 0.00 | 0.00 | 44 | 1013.6 |
| 20260507141502 | 43 | 360 | 1.0 | 0.0 | 0.00 | 0.00 | 0.00 | 45 | 1013.6 |
| 20260507141002 | 43 | 360 | 1.0 | 0.0 | 0.00 | 0.00 | 0.00 | 45 | 1013.6 |
| 20260507140600 | 43 | 360 | 1.0 | 0.0 | 0.00 | 0.00 | 0.00 | 46 | 1013.6 |
| 20260507140122 | 42 | 360 | 0.0 | 0.0 | 0.00 | 0.00 | 0.00 | 48 | 1013.5 |
| 20260507135557 | 41 | 360 | 0.0 | 0.0 | 0.00 | 0.00 | 0.00 | 50 | 1013.5 |
| 20260507135055 | 40 | 360 | 1.0 | 0.0 | 0.00 | 0.00 | 0.00 | 50 | 1013.6 |
| 20260507134555 | 39 | 360 | 1.0 | 0.0 | 0.00 | 0.00 | 0.00 | 49 | 1013.5 |
| 20260507134054 | 39 | 360 | 0.0 | 0.0 | 0.00 | 0.00 | 0.00 | 51 | 1013.5 |
| 20260507133656 | 38 | 360 | 0.0 | 0.0 | 0.00 | 0.00 | 0.00 | 54 | 1013.5 |
| 20260507133053 | 37 | 360 | 0.0 | 0.0 | 0.00 | 0.00 | 0.00 | 55 | 1013.5 |
| 20260507132651 | 37 | 360 | 0.0 | 0.0 | 0.00 | 0.00 | 0.00 | 56 | 1013.5 |
| 20260507132050 | 36 | 360 | 0.0 | 0.0 | 0.00 | 0.00 | 0.00 | 57 | 1013.6 |
| 20260507131601 | 35 | 360 | 0.0 | 0.0 | 0.00 | 0.00 | 0.00 | 59 | 1013.5 |
| 20260507131052 | 34 | 360 | 0.0 | 0.0 | 0.00 | 0.00 | 0.00 | 61 | 1013.6 |
| 20260507130546 | 33 | 360 | 0.0 | 0.0 | 0.00 | 0.00 | 0.00 | 64 | 1013.6 |
| 20260507130051 | 31 | 360 | 0.0 | 0.0 | 0.00 | 0.00 | 0.00 | 66 | 1013.7 |
| 20260507125544 | 30 | 360 | 0.0 | 0.0 | 0.00 | 0.00 | 0.00 | 65 | 1013.7 |
| 20260507125042 | 29 | 360 | 0.0 | 0.0 | 0.00 | 0.00 | 0.00 | 66 | 1013.8 |
| 20260507124552 | 29 | 360 | 0.0 | 0.0 | 0.00 | 0.00 | 0.00 | 68 | 1013.6 |
| 20260507124040 | 28 | 360 | 0.0 | 0.0 | 0.00 | 0.00 | 0.00 | 70 | 1013.6 |
| 20260507123639 | 27 | 360 | 0.0 | 0.0 | 0.00 | 0.00 | 0.00 | 71 | 1013.5 |
| 20260507123052 | 26 | 360 | 0.0 | 0.0 | 0.00 | 0.00 | 0.00 | 71 | 1013.5 |
| 20260507122640 | 26 | 360 | 0.0 | 0.0 | 0.00 | 0.00 | 0.00 | 72 | 1013.4 |
| 20260507122036 | 24 | 360 | 0.0 | 0.0 | 0.00 | 0.00 | 0.00 | 72 | 1013.3 |
| 20260507121541 | 23 | 360 | 0.0 | 0.0 | 0.00 | 0.00 | 0.00 | 73 | 1013.3 |
| 20260507121033 | 22 | 360 | 1.0 | 0.0 | 0.00 | 0.00 | 0.00 | 73 | 1013.2 |
| 20260507120533 | 22 | 360 | 2.0 | 0.0 | 0.00 | 0.00 | 0.00 | 73 | 1013.2 |
| 20260507120032 | 21 | 360 | 2.0 | 0.0 | 0.00 | 0.00 | 0.00 | 72 | 1013.3 |
| 20260507115533 | 20 | 360 | 2.0 | 0.0 | 0.00 | 0.00 | 0.00 | 73 | 1013.2 |
| 20260507115031 | 20 | 360 | 2.0 | 0.0 | 0.00 | 0.00 | 0.00 | 73 | 1013.3 |
| 20260507114531 | 19 | 360 | 2.0 | 0.0 | 0.00 | 0.00 | 0.00 | 73 | 1013.2 |
| 20260507114031 | 18 | 360 | 2.0 | 0.0 | 0.00 | 0.00 | 0.00 | 72 | 1013.2 |
| 20260507113631 | 18 | 360 | 2.0 | 0.0 | 0.00 | 0.00 | 0.00 | 71 | 1013.1 |
| 20260507113035 | 18 | 360 | 1.0 | 0.0 | 0.00 | 0.00 | 0.00 | 70 | 1013.1 |
| 20260507112532 | 19 | 360 | 1.0 | 0.0 | 0.00 | 0.00 | 0.00 | 70 | 1013.2 |
| 20260507112031 | 19 | 360 | 1.0 | 0.0 | 0.00 | 0.00 | 0.00 | 71 | 1013.2 |
| 20260507111532 | 18 | 360 | 2.0 | 0.0 | 0.00 | 0.00 | 0.00 | 70 | 1013.2 |
| 20260507111030 | 18 | 360 | 2.0 | 0.0 | 0.00 | 0.00 | 0.00 | 69 | 1013.1 |
| 20260507110530 | 19 | 360 | 2.0 | 0.0 | 0.00 | 0.00 | 0.00 | 69 | 1013.3 |
| 20260507110029 | 19 | 360 | 2.0 | 0.0 | 0.00 | 0.00 | 0.00 | 69 | 1013.3 |
| 20260507105528 | 19 | 360 | 2.0 | 0.0 | 0.00 | 0.00 | 0.00 | 70 | 1013.0 |
| 20260507105027 | 18 | 360 | 2.0 | 0.0 | 0.00 | 0.00 | 0.00 | 68 | 1013.0 |
| 20260507104526 | 19 | 360 | 1.0 | 0.0 | 0.00 | 0.00 | 0.00 | 67 | 1012.9 |
| 20260507104027 | 20 | 360 | 2.0 | 0.0 | 0.00 | 0.00 | 0.00 | 68 | 1013.0 |
| 20260507103630 | 20 | 360 | 2.0 | 0.0 | 0.00 | 0.00 | 0.00 | 69 | 1013.0 |
| 20260507103024 | 20 | 360 | 1.0 | 0.0 | 0.00 | 0.00 | 0.00 | 67 | 1013.0 |
| 20260507102523 | 20 | 360 | 0.0 | 0.0 | 0.00 | 0.00 | 0.00 | 68 | 1013.0 |
| 20260507102023 | 20 | 360 | 0.0 | 0.0 | 0.00 | 0.00 | 0.00 | 68 | 1013.0 |
| 20260507101530 | 20 | 360 | 0.0 | 0.0 | 0.00 | 0.00 | 0.00 | 67 | 1013.0 |
| 20260507101023 | 20 | 360 | 0.0 | 0.0 | 0.00 | 0.00 | 0.00 | 66 | 1013.0 |
| 20260507100522 | 21 | 360 | 0.0 | 0.0 | 0.00 | 0.00 | 0.00 | 66 | 1013.0 |
| 20260507100031 | 21 | 360 | 0.0 | 0.0 | 0.00 | 0.00 | 0.00 | 68 | 1013.0 |
| 20260507095522 | 20 | 360 | 0.0 | 0.0 | 0.00 | 0.00 | 0.00 | 69 | 1012.9 |
| 20260507095021 | 19 | 360 | 0.0 | 0.0 | 0.00 | 0.00 | 0.00 | 67 | 1013.1 |
| 20260507094522 | 19 | 360 | 0.0 | 0.0 | 0.00 | 0.00 | 0.00 | 66 | 1013.1 |
| 20260507094019 | 20 | 360 | 0.0 | 0.0 | 0.00 | 0.00 | 0.00 | 66 | 1013.0 |
| 20260507093619 | 20 | 360 | 0.0 | 0.0 | 0.00 | 0.00 | 0.00 | 64 | 1013.0 |
| 20260507093103 | 20 | 360 | 0.0 | 0.0 | 0.00 | 0.00 | 0.00 | 65 | 1012.9 |
| 20260507092600 | 21 | 360 | 1.0 | 0.0 | 0.00 | 0.00 | 0.00 | 64 | 1013.0 |
| 20260507092059 | 21 | 360 | 1.0 | 0.0 | 0.00 | 0.00 | 0.00 | 65 | 1013.0 |
| 20260507091606 | 21 | 360 | 1.0 | 0.0 | 0.00 | 0.00 | 0.00 | 66 | 1013.0 |
| 20260507091059 | 20 | 360 | 1.0 | 0.0 | 0.00 | 0.00 | 0.00 | 66 | 1013.0 |
| 20260507090558 | 20 | 360 | 2.0 | 0.0 | 0.00 | 0.00 | 0.00 | 65 | 1012.9 |
| 20260507090005 | 21 | 360 | 2.0 | 0.0 | 0.00 | 0.00 | 0.00 | 65 | 1012.9 |
| 20260507085504 | 21 | 360 | 2.0 | 0.0 | 0.00 | 0.00 | 0.00 | 65 | 1013.0 |
| 20260507085004 | 20 | 360 | 2.0 | 0.0 | 0.00 | 0.00 | 0.00 | 66 | 1012.9 |
| 20260507084502 | 20 | 360 | 2.0 | 0.0 | 0.00 | 0.00 | 0.00 | 66 | 1013.0 |
| 20260507084004 | 20 | 360 | 2.0 | 0.0 | 0.00 | 0.00 | 0.00 | 65 | 1013.0 |
| 20260507083503 | 20 | 360 | 2.0 | 0.0 | 0.00 | 0.00 | 0.00 | 65 | 1012.9 |
| 20260507083002 | 19 | 360 | 2.0 | 0.0 | 0.00 | 0.00 | 0.00 | 64 | 1012.9 |
| 20260507082501 | 20 | 360 | 2.0 | 0.0 | 0.00 | 0.00 | 0.00 | 63 | 1013.0 |
| 20260507082100 | 20 | 360 | 1.0 | 0.0 | 0.00 | 0.00 | 0.00 | 63 | 1013.0 |
| 20260507081559 | 20 | 360 | 1.0 | 0.0 | 0.00 | 0.00 | 0.00 | 63 | 1013.0 |
| 20260507081059 | 21 | 360 | 1.0 | 0.0 | 0.00 | 0.00 | 0.00 | 63 | 1013.0 |